Location: ???????
(55.4362°N, 38.1183°E)
Time: 21:22:12
(UTC+00:00)

M-CUBED/EXP-1 PRIME - Pass Details

Date: 09 December 2021
Orbit: 426 x 650 km, 101.7° (Epoch: 26 January)

Event Time Altitude Azimuth Distance (km) Brightness Sun altitude
Rises 04:22:50 0° 26° (NNE) 2,987 ? -10.2°
Reaches altitude 10° 04:25:13 10° 34° (NE) 2,061 ? -9.9°
Maximum altitude 04:29:26 38° 103° (ESE) 966 ? -9.4°
Drops below altitude 10° 04:33:28 10° 172° (S) 1,970 ? -8.9°
Sets 04:35:41 0° 181° (S) 2,837 ? -8.6°
